Weather in Sitia

Greece     35°12′22″N   26°06′13″E
temp.,
°C
wind,
m/s
gust,
m/s
humid.,
%
clouds,
%
prec.,
mm/h
press.,
hPa
HPBL,
m
24 january, mon
mon2423:00+6nnw886676 1.0 10221239
02:00+5wnw566667 1.9 1022996
05:00+6w456122 0.7 1020878
08:00+6ssw235470 0.9 1020595
11:00+7sse2455100 0.0 10191205
14:00+6se2180100 0.4 1017543
17:00+7wnw6587100 0.8 1016830
20:00+7wnw777674 3.9 10171087
25 january, tue
tue2523:00+6w557015 0.3 1016767
02:00+6sse34653 0.4 1015649
05:00+6nw336547 0.1 1015831
08:00+6n101184100 5.8 10171228
11:00+7n14146983 2.6 10191685
14:00+8nnw14145898 3.0 10192158
17:00+7nnw14146099 0.1 10192042
20:00+7nnw131365100 0.7 10211773
26 january, wed
wed2623:00+7nnw151562100 1.1 10211976
02:00+6nnw151669100 2.3 10201799
05:00+7nnw161866100 1.3 10202044
08:00+7nnw171866100 2.4 10202178
11:00+7nnw161764100 1.3 10222298
14:00+8nnw151758100 1.7 10212303
17:00+8nnw15175794 0.1 10212137
20:00+9nnw131457100 0.2 10222022
27 january, thu
thu2723:00+9nnw121358100 0.1 10231924
02:00+9nnw121361100 0.3 10231860
05:00+9nnw12136599 0.2 10231659
08:00+9nnw111263100 0.4 10241736
11:00+10nw10106098 0.3 10251841
14:00+10nw10115789 0.4 10241883
17:00+10nw101163100 0.2 10241548
20:00+10nw9106199 0.3 10241637
28 january, fri
fri2823:00+10nw10105862 0.0 10241603
02:00+10wnw895984 0.1 10241545
05:00+10wnw785893 0.1 10241490
08:00+10wnw676028 0.1 10251277
11:00+10wnw45584 0.0 10251213
14:00+10nw33592 0.0 1024801
17:00+10wnw22602 0.0 1024511
20:00+10ssw22622 0.0 1024399